Location: Unspecified
(39.1734°N, 0.0000°E)
Time: 08:37:18
(UTC+00:00)

Envisat - Visible Passes

Search period start: 20 September 2020 00:00
Search period end: 30 September 2020 00:00
Orbit: 764 x 766 km, 98.1° (Epoch: 20 September)

Date Brightness Start Highest point End Pass type
(mag) Time Alt. Az. Time Alt. Az. Time Alt. Az.
20 Sep 6.0 04:59:20 10° NE 05:02:51 19° E 05:06:20 10° SE visible
22 Sep 5.9 18:17:06 10° SW 18:21:05 23° W 18:25:04 10° NW visible
23 Sep 6.2 04:48:39 10° ENE 04:51:22 14° E 04:54:05 10° ESE visible
24 Sep 6.4 18:44:36 10° WSW 18:46:46 13° W 18:48:55 10° WNW visible
25 Sep 5.6 05:12:50 10° NE 05:17:03 26° E 05:21:14 10° SSE visible
26 Sep 6.6 04:38:35 10° ENE 04:39:53 11° E 04:41:11 10° ESE visible
27 Sep 6.2 18:32:08 10° SW 18:35:17 16° W 18:38:26 10° NW visible
28 Sep 6.0 05:01:52 10° NE 05:05:36 20° E 05:09:19 10° SE visible
